Regional Weather Roundup
Issued by NWS Little Rock, AR

Home | Current Version | Previous Version | Text Only | Print | Product List | Glossary On
Versions: 1 2 3 4 5 6 7 8 9 10 11 12 13 14 15 16 17 18 19 20 21 22 23 24 25 26 27 28 29 30 31 32 33 34 35 36 37 38 39 40 41 42 43 44 45 46 47 48 49 50
000
ASUS44 KLZK 100105
RWRLZK

WEATHER ROUNDUP FOR ARKANSAS
NATIONAL WEATHER SERVICE LITTLE ROCK AR
800 PM CDT WED JUL 09 2014

NOTE: "FAIR" INDICATES FEW OR NO CLOUDS BELOW 12,000 FEET WITH NO
SIGNIFICANT WEATHER AND/OR OBSTRUCTIONS TO VISIBILITY.

ARZ001-003-010-029-100200-
NORTHWEST ARKANSAS

CITY           SKY/WX    TMP DP  RH WIND       PRES   REMARKS
FAYETTEVILLE   CLEAR     78  67  68 CALM      30.03S
FORT SMITH     PTCLDY    84  68  58 SW5       29.98S HX  87
HARRISON       CLEAR     78  61  55 CALM      30.04S
BENTONVILLE    CLEAR     79  61  53 NE5       30.04S
ROGERS         CLEAR     77  63  61 NE3       30.05S
SILOAM SPGS    CLEAR     81  61  50 CALM      30.04S
HIGHFILL       CLEAR     81  64  56 NE3       30.03S
SPRINGDALE     PTCLDY    81  61  50 NE6       30.05S
$$

ARZ004-005-016-100200-
NORTH CENTRAL ARKANSAS

CITY           SKY/WX    TMP DP  RH WIND       PRES   REMARKS
BATESVILLE     PTCLDY    81  66  61 CALM      30.00S
FLIPPIN          N/A     81  63  54 CALM      30.03R
MTN HOME       CLEAR     75  65  70 CALM      30.01S
$$

ARZ040-041-100200-
WEST CENTRAL ARKANSAS

CITY           SKY/WX    TMP DP  RH WIND       PRES   REMARKS
MENA           MOCLDY   N/A N/A N/A CALM      30.03S
MOUNT IDA      PTCLDY    77  73  87 CALM      29.99F
$$

ARZ009-017-025-026-028-100200-
NORTHEAST ARKANSAS

CITY           SKY/WX    TMP DP  RH WIND       PRES   REMARKS
CORNING        LGT RAIN  82  66  57 N3        29.99S HX  85
JONESBORO      CLEAR     80  69  69 CALM      29.98S
NEWPORT        MOCLDY    82  73  74 VRB6      30.00S HX  87
WALNUT RIDGE   CLEAR     81  63  54 NW7       29.99R
BLYTHEVILLE    CLEAR     80  69  69 NW5       29.99R
$$

ARZ022-023-033-042-044-100200-
CENTRAL ARKANSAS

CITY           SKY/WX    TMP DP  RH WIND       PRES   REMARKS
LITTLE ROCK    MOCLDY    81  71  71 S7        29.99S HX  85
N LITTLE ROCK  MOCLDY    80  72  78 CALM      29.99S
JACKSONVILLE   PTCLDY    82  72  70 CALM      29.99S HX  87
SEARCY         PTCLDY    81  73  76 NW5       30.00S HX  86
HOT SPRINGS    PTCLDY    79  72  79 SE3       30.00S
RUSSELLVILLE   PTCLDY    79  73  82 CALM      29.99S
CLINTON        FAIR      82  73  74 CALM      30.01R HAZE    HX  88
$$

ARZ036-100200-
EAST ARKANSAS

CITY           SKY/WX    TMP DP  RH WIND       PRES   REMARKS
WEST MEMPHIS   CLEAR     77  74  90 CALM      29.99R
$$

ARZ050-053-066-070-073-100200-
SOUTHWEST ARKANSAS

CITY           SKY/WX    TMP DP  RH WIND       PRES   REMARKS
ARKADELPHIA    FAIR      80  76  87 CALM      30.00S HX  85
CAMDEN         MOCLDY    79  70  73 CALM      30.00S
TEXARKANA      MOCLDY    79  73  82 E3        29.99S
EL DORADO      MOCLDY    80  74  81 NE5       30.00S HX  85
DE QUEEN       PTCLDY    80  74  81 E3        29.97S HX  85
$$

ARZ056-057-069-100200-
SOUTHEAST ARKANSAS

CITY           SKY/WX    TMP DP  RH WIND       PRES   REMARKS
PINE BLUFF     CLEAR     78  69  73 SW5       30.01R
MONTICELLO     PTCLDY    80  71  74 CALM      30.01R

$$




USA.gov is the U.S. government's official web portal to all federal, state and local government web resources and services.